EDT,Max TemperatureF,Mean TemperatureF,Min TemperatureF,Max Dew PointF,MeanDew PointF,Min DewpointF,Max Humidity, Mean Humidity, Min Humidity, Max Sea Level PressureIn, Mean Sea Level PressureIn, Min Sea Level PressureIn, Max VisibilityMiles, Mean VisibilityMiles, Min VisibilityMiles, Max Wind SpeedMPH, Mean Wind SpeedMPH, Max Gust SpeedMPH,PrecipitationIn, CloudCover, Events, WindDirDegrees
2013-9-1,91,81,71,75,72,68,100,82,52,,,,10,9,2,30,7,50,0.00,1,Rain-Thunderstorm,219
2013-9-2,89,79,69,75,73,70,100,85,55,,,,10,9,3,21,9,30,0.00,1,Rain-Thunderstorm,244
2013-9-3,89,78,68,75,72,68,100,85,55,,,,10,9,4,25,9,34,0.00,1,Thunderstorm,242
2013-9-4,87,76,66,75,69,64,100,82,52,,,,10,9,0,21,4,24,0.00,1,Fog,7
2013-9-5,87,76,66,72,67,63,100,77,45,,,,10,7,0,17,3,26,0.00,1,Fog-Thunderstorm,358
2013-9-6,84,73,62,63,61,57,94,70,42,,,,10,10,10,24,8,33,0.00,0,,11
2013-9-7,84,72,60,66,62,57,100,75,42,,,,10,10,9,12,4,20,0.00,1,,33
2013-9-8,86,73,60,68,64,59,100,76,42,,,,10,10,3,16,3,24,0.00,1,,326
2013-9-9,89,76,64,72,65,61,100,74,38,,,,10,9,4,18,4,28,0.00,0,,114
2013-9-10,89,76,64,72,66,59,100,77,36,,,,10,7,0,17,2,36,0.00,1,Fog,131
2013-9-11,89,76,62,70,66,63,100,77,40,,,,10,7,0,21,2,28,0.00,1,Fog,174
2013-9-12,89,76,64,68,66,63,100,73,43,,,,10,9,3,23,6,34,0.00,1,,245
2013-9-13,86,76,66,68,62,54,100,67,35,,,,10,10,3,21,9,33,0.00,1,,332
2013-9-14,80,70,59,57,51,48,88,56,36,,,,10,10,10,30,16,41,0.00,1,,20
2013-9-15,84,70,57,70,61,55,100,75,42,,,,10,10,10,15,5,30,0.00,2,,73
2013-9-16,86,76,66,72,67,59,100,77,42,,,,10,8,0,20,4,31,0.00,4,Fog,344
2013-9-17,78,68,59,63,54,46,82,60,34,30.29,30.24,30.20,10,10,10,29,15,39,0.03,3,Rain,53
2013-9-18,75,63,51,57,52,48,100,71,38,30.30,30.23,30.16,10,10,10,29,11,39,0.00,0,,35
2013-9-19,78,64,51,64,56,52,100,78,42,30.21,30.15,30.09,10,10,7,10,0,21,0.00,3,,134
2013-9-20,84,72,60,68,64,61,100,78,45,30.09,30.03,29.94,10,8,6,16,4,26,0.00,4,,170
2013-9-21,82,71,60,72,67,61,100,87,51,29.96,29.83,29.68,9,6,0,21,6,48,0.53,2,Fog-Rain,166
2013-9-22,78,69,59,70,61,55,100,80,47,29.90,29.77,29.64,10,9,2,30,18,59,0.05,4,Rain,351
2013-9-23,73,63,53,59,56,50,100,80,46,30.07,30.01,29.90,10,8,2,17,4,31,0.00,1,,39
2013-9-24,77,64,51,59,55,52,100,78,44,30.10,30.03,29.95,10,7,1,17,3,26,0.00,2,,104
2013-9-25,73,63,53,64,59,54,100,90,53,29.96,29.91,29.87,9,5,0,18,3,26,0.00,4,Fog-Rain,65
2013-9-26,77,68,59,63,58,48,100,77,38,30.02,29.93,29.88,10,7,2,24,6,38,0.00,3,Rain,16
2013-9-27,75,64,53,59,55,52,100,78,44,30.17,30.10,30.02,10,10,8,33,11,45,0.00,1,,22
2013-9-28,73,62,50,57,52,48,100,74,41,30.24,30.18,30.15,10,10,5,33,11,40,0.00,0,,16
2013-9-29,73,63,53,57,52,48,100,75,41,30.16,30.10,30.04,10,10,7,15,7,23,0.00,2,,17
2013-9-30,75,62,50,59,54,48,100,84,38,30.10,30.06,30.01,10,10,8,,,,0.00,2,,-1